Temperature
16 17 18 18 19 18 17 17 16 18 18 19 20 19 21 22 22 22 22 22 22 21 21 20 19 19 19 18 17 17 16 15 16 16 16 16 16 16 15 15 15 15 14 14
17 17 17 17 18 18 18 18 17 18 18 20 20 20 20 22 22 22 22 22 22 22 21 21 20 20 19 18 18 17 17 16 16 15 15 15 15 15 15 14 14 14 14 14
14 16 16 15 18 18 18 19 19 18 19 19 19 20 21 22 23 23 22 22 21 21 20 20 20 20 19 19 18 17 18 18 17 16 15 15 15 15 15 14 14 14 14 14
13 14 13 17 17 18 18 19 19 19 19 19 19 22 22 23 24 23 22 22 21 20 20 19 19 19 18 18 18 18 18 17 17 16 16 15 15 15 14 14 14 14 14 14
12 14 15 17 18 18 18 19 20 19 20 20 21 20 20 22 23 22 21 21 20 19 19 18 18 18 19 19 18 18 18 17 17 16 16 16 16 15 15 15 14 14 14 13
12 13 14 17 18 19 20 19 20 20 19 20 20 18 18 21 21 21 20 19 19 18 17 16 16 16 17 17 17 17 17 17 17 16 16 16 15 15 14 14 14 13 13 12
13 12 13 16 17 18 18 19 22 22 22 22 20 20 21 20 20 19 19 18 18 17 16 16 15 15 15 15 15 15 15 16 16 16 15 14 14 13 13 13 13 13 12 12
13 13 14 17 17 17 18 21 23 23 23 22 22 21 20 19 19 18 18 17 16 16 16 15 15 15 14 14 13 13 13 14 14 14 13 12 13 12 12 12 13 12 12 12
13 14 16 17 17 18 18 20 22 22 22 22 21 20 19 18 18 18 17 16 15 15 15 14 14 14 14 13 13 12 12 12 12 12 12 12 12 12 12 12 12 12 12 12
13 15 15 16 18 19 20 21 22 22 22 21 20 19 19 18 17 17 16 15 15 14 14 14 14 14 13 13 13 12 12 11 11 11 11 11 12 12 12 12 12 12 12 12
13 14 15 18 17 18 19 21 23 22 22 22 21 19 18 18 17 16 16 15 15 15 14 14 14 14 13 13 12 12 11 11 11 11 11 11 11 12 12 12 12 12 11 12
12 13 13 14 16 15 18 20 22 22 22 21 21 20 18 18 17 16 16 16 15 15 14 14 14 14 13 12 12 12 11 11 11 10 10 11 11 11 11 11 11 11 11 11
13 13 13 15 15 16 17 19 21 22 21 21 21 20 19 18 17 16 16 16 15 15 14 14 14 14 13 12 12 11 11 11 11 11 11 11 11 11 11 11 11 11 11 11
13 12 12 14 14 15 16 18 20 22 21 21 20 20 19 18 17 17 17 16 16 15 14 14 14 13 13 12 12 11 11 11 11 11 11 11 11 11 10 10 10 10 11 11
13 13 13 14 15 15 16 18 20 22 21 21 20 20 19 18 17 17 17 16 16 15 15 14 14 14 13 12 12 11 11 11 10 10 10 10 10 10 10 10 10 10 10 10
13 13 14 14 15 16 17 18 19 21 22 21 20 20 19 19 18 18 17 17 16 16 15 15 14 14 13 13 12 11 11 11 10 10 10 11 11 11 10 10 10 10 10 9
12 12 13 14 14 16 17 18 19 20 21 22 21 20 19 19 18 18 17 17 16 16 16 15 15 14 13 12 12 11 11 10 10 10 10 10 10 10 10 10 10 10 10 9
12 13 13 14 15 15 16 18 19 21 22 22 21 20 19 19 18 18 18 17 17 16 16 15 15 14 13 12 12 10 10 10 10 10 10 10 10 10 10 10 10 10 9 9
11 12 12 13 15 16 17 18 19 20 21 22 21 20 20 19 19 18 18 17 17 17 16 15 14 14 13 12 11 10 10 10 10 10 10 10 10 10 10 10 10 10 10 10
9 11 12 13 15 17 18 19 19 20 21 21 21 21 20 19 19 19 18 18 18 17 17 15 14 13 13 12 11 10 10 10 10 10 10 10 10 10 10 10 10 10 10 10
9 9 12 15 16 18 19 19 20 20 21 21 21 21 20 20 19 19 18 18 18 17 16 15 14 13 13 12 11 10 10 9 9 9 10 10 10 10 10 10 10 10 10 10
9 9 12 15 18 19 20 20 20 21 21 21 21 21 20 20 19 19 19 18 18 17 16 15 14 13 12 11 11 10 10 9 9 9 10 10 10 10 10 11 10 10 10 10
9 10 13 16 18 20 21 21 20 20 20 20 21 21 20 20 19 19 19 18 17 16 15 14 13 13 12 11 10 9 9 9 9 9 9 9 10 10 10 10 10 10 9 9
11 11 13 15 17 19 20 20 20 20 20 20 20 20 20 20 19 19 19 18 17 16 14 14 13 12 11 10 9 9 9 9 9 9 9 9 9 9 9 9 9 9 9 9
10 11 13 15 16 18 20 21 21 20 20 19 20 20 20 20 20 19 19 18 16 15 14 13 13 12 10 9 9 9 9 8 8 8 8 8 8 8 8 8 8 8 8 8
10 10 11 13 15 17 19 20 20 20 20 19 19 20 20 20 19 19 18 17 16 15 14 14 13 11 10 9 9 9 8 8 8 8 8 8 8 8 8 8 8 8 8 8
10 11 11 13 15 17 18 19 20 20 20 19 19 19 19 19 19 18 17 16 15 15 14 13 12 11 11 10 10 9 9 8 8 8 8 8 8 8 8 9 9 9 8 8
Wind_Speed
6 7 3 5 6 7 8 8 9 9 9 14 13 10 11 12 7 9 9 10 12 13 12 11 11 11 11 11 10 10 9 9 9 7 6 6 5 5 4 4 6 7 6 6
7 8 4 9 12 11 11 10 13 13 13 15 14 4 8 9 9 10 10 12 14 13 12 11 12 12 11 10 10 11 11 12 9 8 8 8 8 7 6 6 6 6 5 5
5 5 9 10 9 11 11 12 12 14 13 9 6 7 8 10 9 13 12 11 10 7 6 7 8 9 11 11 9 13 15 14 11 10 10 10 10 7 5 4 2 3 4 4
3 2 6 10 8 11 10 12 15 16 11 9 9 8 5 8 8 8 8 6 5 5 4 2 1 6 9 8 10 14 13 12 12 12 13 12 10 10 7 4 3 4 4 4
1 2 9 13 9 4 6 12 15 18 14 7 6 3 3 2 4 8 8 7 6 6 6 6 6 5 3 5 6 8 8 10 11 11 10 10 11 11 7 5 5 4 4 4
2 2 5 8 7 11 9 6 5 5 6 7 8 4 4 1 6 9 9 8 8 7 6 7 6 7 9 7 4 2 5 5 7 10 10 8 8 6 4 4 5 4 5 5
3 1 9 11 10 7 3 4 4 6 6 7 6 5 7 9 8 8 8 8 7 8 7 6 6 9 9 9 7 4 4 5 5 4 5 9 9 5 2 5 4 4 4 4
2 4 8 6 6 3 8 6 2 4 3 4 5 8 10 11 9 9 8 7 7 7 6 6 7 9 8 7 4 4 5 5 5 8 8 8 7 6 6 7 4 4 3 3
4 8 6 11 10 17 18 11 2 3 2 7 7 7 9 9 9 8 8 6 5 6 5 4 4 7 7 4 4 6 5 3 3 6 7 6 7 9 7 6 5 4 3 4
5 9 13 18 15 18 17 8 5 7 7 9 9 9 9 9 8 7 6 6 6 6 5 3 2 2 3 3 4 5 3 3 4 5 6 5 4 6 6 5 3 4 4 4
6 10 16 14 14 18 20 10 6 5 5 7 10 12 12 9 9 8 7 5 6 6 6 6 5 5 4 3 4 3 4 4 3 3 4 4 2 1 3 4 4 4 4 4
6 7 7 17 20 26 25 21 4 3 2 4 8 11 11 10 10 9 8 6 6 6 6 6 6 6 5 4 4 4 3 2 1 2 2 3 4 4 8 5 4 5 3 3
6 12 16 21 24 27 19 18 7 3 5 5 6 9 11 10 10 10 9 8 8 7 6 4 2 5 6 5 5 5 4 2 1 1 2 2 3 4 3 2 5 6 4 3
14 14 17 21 20 25 25 24 15 4 4 7 8 10 11 9 9 10 10 10 9 6 4 4 5 6 6 6 6 5 4 3 3 2 2 3 3 3 3 3 2 1 3 3
18 17 20 24 27 25 22 18 12 6 4 5 7 11 13 13 13 12 11 8 6 5 5 7 7 7 7 7 7 5 3 2 2 1 1 1 1 1 1 2 3 3 2 2
18 20 16 22 27 21 15 12 10 9 7 7 9 12 14 15 13 11 10 8 7 7 8 9 8 7 8 8 7 5 4 4 2 1 2 1 1 1 3 4 5 4 4 4
21 23 20 21 21 17 14 12 12 11 7 9 12 12 11 11 10 10 10 8 8 8 9 9 8 8 8 8 7 5 4 3 3 2 2 2 2 3 4 5 4 4 3 3
17 23 21 18 18 19 19 17 14 11 8 9 11 12 12 13 13 12 10 7 6 6 7 8 9 9 8 7 6 5 4 4 2 1 1 3 3 3 3 3 3 3 1 2
21 15 22 22 21 18 16 16 13 11 8 7 11 13 14 15 13 10 8 7 8 8 8 9 12 11 8 7 6 4 4 4 2 1 1 4 4 3 3 3 2 2 3 2
27 27 24 23 23 20 17 17 13 11 8 8 11 12 11 11 10 10 10 9 8 7 10 12 11 9 8 8 8 5 4 4 2 3 3 4 4 3 3 3 3 3 3 2
26 26 27 21 20 19 16 14 11 11 9 8 11 14 14 12 10 10 9 6 6 9 12 13 10 7 7 7 6 4 5 4 3 4 3 3 3 3 3 3 3 2 2 1
28 26 27 22 16 16 15 11 10 10 7 6 10 11 10 9 9 7 4 6 8 11 10 8 8 9 9 8 5 5 5 5 4 4 3 3 2 2 3 2 2 2 1 1
24 25 27 24 13 11 9 8 9 8 7 7 9 10 11 10 10 9 6 6 9 13 10 8 12 14 12 7 5 6 6 5 5 4 4 4 3 3 3 3 3 3 3 2
25 26 26 24 15 4 5 7 8 7 6 6 8 10 12 9 4 3 7 12 15 15 11 11 14 15 10 6 6 5 5 5 4 4 4 4 4 3 3 4 3 3 3 3
22 23 24 23 16 9 6 5 3 4 4 4 6 7 8 8 9 9 10 12 15 14 10 14 18 14 8 6 6 5 5 4 5 4 3 3 4 4 4 4 4 4 4 3
20 19 20 21 16 10 6 3 4 5 6 5 4 5 6 7 10 11 11 12 12 12 10 8 9 8 6 6 6 6 5 5 5 5 4 4 4 4 4 4 4 4 3 3
19 19 18 19 16 12 8 4 5 6 7 9 7 6 8 9 11 11 11 11 10 9 8 8 8 7 6 6 6 6 5 4 3 3 3 4 4 5 4 4 4 4 3 3
Wind_Direction
271 284 257 248 246 232 201 198 217 240 232 258 257 258 287 276 226 176 184 175 185 196 204 197 195 191 190 188 179 173 178 191 201 191 184 193 204 205 220 240 243 255 252 242
277 296 294 266 251 244 242 226 229 243 243 240 245 250 281 262 192 192 198 195 199 203 203 200 198 197 194 195 187 179 188 201 200 190 188 196 215 216 210 225 234 231 231 237
307 330 319 285 256 236 227 223 230 237 237 222 210 196 226 246 216 209 201 206 214 212 213 221 217 202 200 203 180 191 199 200 198 189 191 197 199 202 222 218 201 237 247 239
284 354 265 267 267 259 251 255 242 239 231 208 205 213 235 227 176 157 141 132 121 118 107 81 161 200 211 193 196 205 198 196 198 192 197 193 182 185 188 184 207 234 247 262
318 273 294 305 302 270 214 256 241 224 226 220 177 108 326 326 121 137 132 126 114 102 85 53 35 35 107 168 195 210 194 186 191 193 200 191 182 174 166 179 204 217 227 238
75 311 266 268 299 338 337 316 341 127 163 153 129 131 235 81 87 95 100 107 109 104 90 67 37 50 65 67 94 208 217 186 189 189 185 163 140 134 151 191 223 223 235 227
121 257 266 268 283 313 352 299 348 89 124 146 162 173 149 122 107 110 111 110 103 90 76 62 75 79 69 68 67 59 81 111 115 119 127 124 130 154 186 255 242 247 230 221
163 229 255 344 324 307 308 297 100 91 132 135 118 119 124 126 129 126 120 116 108 97 86 74 85 89 81 76 77 81 81 96 120 117 119 138 162 196 201 233 232 243 198 225
251 246 298 323 289 293 292 278 199 113 115 128 133 142 139 140 140 135 131 134 131 124 115 104 112 116 119 155 150 120 111 127 140 130 130 155 195 196 195 195 182 205 206 219
272 291 327 308 306 317 295 242 175 175 162 158 170 159 149 148 141 141 150 154 158 144 150 197 205 173 158 167 140 114 112 144 165 158 156 180 200 187 169 162 179 196 207 217
274 315 337 324 319 321 338 309 177 196 185 163 162 168 162 156 155 162 166 171 168 176 196 233 248 237 230 186 144 99 88 109 123 163 164 142 119 96 156 166 175 180 207 210
255 270 292 287 300 317 322 303 269 176 166 168 164 164 157 158 164 168 175 178 187 206 220 248 265 228 204 174 140 120 91 74 77 114 109 107 121 81 52 55 88 113 141 170
271 281 283 288 301 303 314 310 289 197 183 176 162 153 153 159 168 171 178 186 202 217 230 261 245 175 168 155 136 140 136 128 103 102 111 122 130 143 141 79 47 50 55 85
273 272 275 275 283 294 302 303 290 221 180 175 165 155 151 150 162 177 190 201 207 209 212 190 169 168 165 152 146 141 131 132 130 128 143 151 161 165 168 163 146 73 40 60
261 258 262 274 279 278 282 292 279 237 204 175 164 159 156 161 176 193 206 206 188 188 193 169 172 178 157 143 136 135 139 145 147 132 104 107 115 81 100 123 129 125 124 93
275 280 274 273 277 282 286 291 276 252 218 184 175 174 173 174 181 195 208 191 174 194 184 173 179 169 144 134 137 146 155 159 163 118 85 64 83 150 137 134 139 154 175 170
253 260 262 264 271 282 283 284 288 270 241 189 187 177 168 168 178 196 212 204 203 194 174 170 170 157 145 144 147 159 163 167 153 116 128 129 136 130 139 145 150 171 203 183
255 246 252 259 274 283 285 287 295 277 237 202 177 167 168 176 187 200 209 189 178 164 169 170 154 145 142 148 153 158 158 153 148 189 193 168 159 146 138 150 166 175 157 160
346 280 262 261 259 262 267 269 270 266 245 181 166 181 184 187 191 193 174 165 169 170 182 162 151 144 145 152 144 137 147 148 153 181 113 131 133 136 140 142 144 160 164 185
346 341 315 279 261 256 257 258 255 252 232 182 179 179 182 191 184 175 170 180 187 174 157 154 150 149 153 149 132 130 137 143 139 101 110 129 138 142 153 162 157 166 186 196
337 331 323 294 259 250 242 242 238 232 223 187 180 186 189 187 173 166 166 182 185 152 148 147 148 149 152 146 133 138 137 130 131 120 109 118 137 158 168 176 181 183 195 199
331 330 327 313 260 243 240 234 223 221 215 195 191 180 166 161 155 152 161 170 157 140 137 137 143 149 152 144 146 142 127 129 132 123 114 117 139 161 153 144 155 155 167 197
323 327 328 325 287 247 239 218 211 208 199 185 179 171 164 164 164 163 169 144 140 133 134 140 145 146 144 147 149 139 129 130 132 132 128 120 115 112 107 108 113 114 120 114
326 328 327 324 314 279 229 230 222 215 205 187 182 170 152 140 114 101 125 132 136 131 137 145 147 142 140 140 132 128 127 137 144 148 140 129 120 111 102 101 97 100 98 84
320 323 326 329 323 309 280 253 202 188 180 166 163 157 153 154 153 149 134 134 134 130 140 151 149 142 141 137 133 128 131 143 138 132 147 159 157 144 125 114 102 96 91 85
321 326 324 319 309 299 288 208 170 178 148 120 105 113 109 106 114 126 130 132 135 136 140 141 139 134 136 134 134 136 148 155 151 156 158 145 135 138 135 133 126 106 97 96
322 322 322 320 322 328 319 267 185 173 161 146 131 123 118 120 123 128 131 132 137 138 138 139 138 134 136 141 143 147 152 158 162 148 127 127 139 145 142 137 132 134 136 128
Height
1487 1482 1479 1480 1478 1476 1482 1482 1489 1478 1475 1467 1462 1460 1455 1452 1450 1449 1451 1453 1456 1458 1459 1461 1463 1465 1467 1469 1471 1473 1475 1477 1480 1482 1485 1487 1487 1489 1492 1493 1493 1494 1495 1496
1482 1476 1477 1479 1473 1471 1471 1471 1472 1468 1465 1455 1453 1455 1453 1448 1447 1448 1450 1451 1452 1454 1456 1457 1460 1461 1464 1466 1467 1469 1471 1473 1476 1479 1480 1482 1484 1486 1488 1490 1491 1493 1493 1493
1490 1479 1479 1481 1462 1461 1459 1454 1457 1460 1454 1449 1449 1448 1448 1447 1445 1444 1446 1449 1451 1453 1454 1456 1457 1459 1460 1463 1465 1465 1465 1468 1471 1473 1475 1477 1480 1482 1484 1487 1489 1490 1490 1490
1492 1489 1497 1465 1450 1450 1451 1447 1444 1442 1441 1441 1443 1443 1445 1443 1440 1441 1445 1449 1451 1452 1452 1453 1454 1455 1456 1459 1460 1461 1460 1463 1466 1469 1470 1472 1475 1477 1480 1482 1484 1485 1485 1486
1494 1492 1479 1457 1445 1443 1446 1441 1429 1430 1432 1436 1440 1443 1443 1441 1441 1444 1447 1449 1450 1451 1451 1451 1451 1451 1451 1452 1454 1456 1457 1459 1462 1465 1467 1469 1470 1471 1475 1478 1480 1480 1480 1481
1492 1496 1489 1461 1446 1442 1443 1444 1425 1425 1430 1434 1438 1447 1445 1442 1443 1445 1447 1449 1450 1450 1451 1450 1449 1449 1449 1449 1450 1451 1453 1455 1457 1460 1462 1464 1468 1470 1473 1475 1476 1476 1477 1478
1489 1493 1481 1454 1447 1447 1457 1451 1433 1430 1431 1433 1435 1437 1438 1441 1443 1445 1447 1448 1449 1450 1449 1448 1448 1447 1448 1449 1449 1449 1450 1451 1453 1456 1458 1461 1465 1469 1472 1475 1474 1472 1472 1475
1485 1489 1479 1453 1450 1453 1451 1438 1433 1433 1433 1432 1432 1433 1436 1439 1442 1445 1446 1447 1448 1448 1448 1448 1448 1448 1448 1448 1448 1449 1449 1450 1452 1453 1454 1458 1462 1466 1468 1470 1470 1470 1470 1472
1477 1469 1454 1453 1453 1447 1443 1441 1435 1434 1433 1433 1434 1435 1437 1439 1442 1444 1445 1446 1447 1447 1448 1448 1449 1450 1450 1449 1449 1449 1449 1450 1451 1451 1451 1454 1457 1460 1464 1465 1465 1467 1467 1468
1469 1456 1452 1447 1445 1442 1436 1435 1434 1434 1433 1434 1434 1435 1437 1439 1441 1444 1445 1445 1446 1446 1447 1449 1450 1450 1451 1450 1450 1449 1449 1449 1450 1451 1452 1453 1455 1457 1459 1460 1461 1462 1464 1466
1467 1457 1450 1444 1446 1446 1440 1436 1432 1432 1432 1432 1433 1433 1435 1438 1441 1443 1444 1445 1445 1446 1447 1448 1450 1450 1451 1451 1450 1449 1448 1448 1449 1450 1451 1453 1454 1456 1458 1459 1460 1461 1462 1463
1467 1459 1458 1450 1445 1442 1440 1438 1433 1431 1431 1432 1431 1431 1433 1437 1440 1442 1443 1445 1446 1447 1447 1448 1449 1449 1449 1449 1449 1448 1447 1448 1448 1449 1450 1450 1453 1454 1455 1456 1457 1459 1460 1462
1465 1462 1456 1447 1444 1442 1442 1440 1435 1431 1430 1430 1430 1431 1432 1436 1438 1441 1443 1445 1446 1446 1447 1447 1448 1447 1447 1448 1448 1447 1447 1447 1448 1448 1449 1450 1451 1453 1454 1455 1455 1456 1458 1459
1462 1462 1454 1446 1443 1440 1440 1439 1436 1431 1430 1429 1429 1430 1432 1435 1438 1440 1442 1444 1445 1445 1446 1446 1446 1447 1446 1446 1447 1447 1447 1447 1448 1448 1448 1449 1449 1450 1451 1452 1453 1454 1454 1456
1454 1457 1453 1446 1442 1440 1439 1437 1433 1429 1428 1428 1428 1429 1431 1433 1436 1439 1441 1443 1444 1444 1445 1445 1446 1446 1446 1446 1447 1447 1447 1447 1447 1447 1447 1447 1447 1449 1449 1450 1451 1452 1453 1453
1443 1441 1442 1440 1433 1434 1434 1433 1430 1427 1426 1425 1426 1427 1428 1431 1434 1437 1439 1441 1441 1441 1443 1444 1445 1445 1445 1445 1446 1446 1447 1447 1448 1448 1448 1448 1449 1449 1450 1450 1451 1452 1452 1453
1437 1434 1435 1435 1431 1429 1428 1427 1425 1423 1423 1421 1422 1424 1427 1430 1433 1435 1437 1438 1439 1440 1441 1443 1444 1444 1444 1444 1445 1445 1447 1448 1448 1449 1449 1449 1450 1450 1450 1450 1450 1451 1451 1452
1424 1427 1428 1427 1424 1423 1421 1420 1421 1420 1419 1419 1420 1422 1425 1427 1429 1432 1435 1436 1437 1438 1440 1442 1443 1443 1443 1444 1444 1445 1447 1448 1448 1449 1449 1449 1450 1450 1450 1450 1450 1451 1451 1452
1419 1420 1420 1418 1417 1417 1416 1416 1417 1418 1416 1416 1417 1419 1421 1424 1426 1429 1432 1433 1434 1436 1438 1440 1441 1441 1442 1442 1443 1445 1446 1448 1448 1448 1449 1449 1450 1450 1450 1450 1451 1450 1451 1451
1414 1409 1409 1409 1409 1410 1410 1411 1413 1413 1413 1412 1413 1416 1418 1421 1424 1427 1429 1430 1431 1433 1436 1437 1439 1440 1441 1441 1443 1444 1446 1447 1448 1449 1449 1450 1451 1451 1452 1452 1452 1452 1452 1453
1411 1405 1400 1399 1399 1401 1403 1405 1407 1407 1408 1408 1408 1411 1414 1418 1421 1424 1425 1427 1429 1431 1433 1435 1437 1439 1440 1441 1442 1444 1445 1446 1447 1448 1450 1451 1452 1452 1452 1452 1453 1453 1453 1454
1407 1401 1393 1390 1392 1394 1396 1399 1401 1402 1403 1403 1403 1406 1410 1415 1418 1421 1422 1425 1427 1429 1431 1434 1436 1437 1439 1439 1440 1442 1444 1446 1447 1449 1450 1451 1451 1451 1452 1452 1453 1453 1453 1452
1406 1399 1390 1387 1387 1388 1391 1393 1395 1397 1398 1399 1400 1403 1407 1411 1414 1417 1419 1423 1425 1428 1430 1432 1435 1436 1436 1438 1440 1442 1444 1445 1447 1448 1449 1450 1451 1451 1451 1451 1451 1452 1452 1452
1402 1397 1390 1387 1386 1387 1388 1390 1392 1394 1395 1396 1398 1401 1404 1408 1412 1415 1418 1421 1423 1426 1428 1430 1432 1434 1435 1437 1440 1442 1444 1445 1446 1447 1448 1449 1450 1451 1451 1451 1451 1452 1452 1451
1404 1399 1391 1387 1386 1387 1387 1388 1389 1391 1391 1393 1395 1398 1401 1405 1409 1412 1416 1419 1421 1424 1426 1429 1431 1433 1435 1438 1440 1442 1444 1445 1445 1445 1445 1447 1449 1449 1450 1451 1451 1451 1450 1450
1405 1400 1394 1389 1388 1387 1386 1386 1387 1388 1389 1391 1393 1396 1399 1403 1407 1411 1414 1417 1420 1422 1424 1427 1429 1432 1435 1437 1439 1441 1443 1444 1446 1446 1446 1447 1448 1449 1449 1450 1449 1449 1449 1448
1403 1400 1394 1388 1386 1384 1383 1384 1385 1386 1388 1390 1391 1394 1398 1402 1406 1410 1413 1415 1418 1421 1423 1426 1429 1432 1435 1437 1439 1441 1443 1445 1447 1447 1448 1449 1449 1449 1449 1449 1448 1449 1449 1449